| time (UTC) | temp C | wind direction | speed KPH | gust KPH | rain 1hr cm | rain 24hr cm | rain mn cm | humidity % | barometer mb |
| 20260903161422 | 18 | 185 | 4.8 | 14.5 | 0.00 | 0.00 | 0.00 | 77 | 1015.2 |
| 20260903160920 | 18 | 219 | 8.0 | 16.1 | 0.00 | 0.00 | 0.00 | 77 | 1015.3 |
| 20260903160426 | 18 | 251 | 4.8 | 9.7 | 0.00 | 0.00 | 0.00 | 78 | 1015.2 |
| 20260903155930 | 18 | 177 | 3.2 | 9.7 | 0.00 | 0.00 | 0.00 | 78 | 1015.2 |
| 20260903155417 | 17 | 222 | 4.8 | 9.7 | 0.00 | 0.00 | 0.00 | 78 | 1015.3 |
| 20260903154923 | 17 | 209 | 3.2 | 9.7 | 0.00 | 0.00 | 0.00 | 79 | 1015.3 |
| 20260903154446 | 17 | 225 | 4.8 | 9.7 | 0.00 | 0.00 | 0.00 | 79 | 1015.2 |
| 20260903153931 | 17 | 268 | 3.2 | 9.7 | 0.00 | 0.00 | 0.00 | 80 | 1015.3 |
| 20260903153417 | 17 | 177 | 3.2 | 9.7 | 0.00 | 0.00 | 0.00 | 80 | 1015.2 |
| 20260903152922 | 17 | 171 | 3.2 | 9.7 | 0.00 | 0.00 | 0.00 | 80 | 1015.2 |
| 20260903152430 | 17 | 102 | 3.2 | 9.7 | 0.00 | 0.00 | 0.00 | 81 | 1015.4 |
| 20260903151935 | 17 | 154 | 1.6 | 8.0 | 0.00 | 0.00 | 0.00 | 81 | 1015.2 |
| 20260903151421 | 17 | 256 | 3.2 | 6.4 | 0.00 | 0.00 | 0.00 | 82 | 1015.2 |
| 20260903150926 | 17 | 219 | 1.6 | 8.0 | 0.00 | 0.00 | 0.00 | 82 | 1015.3 |
| 20260903150456 | 17 | 162 | 4.8 | 9.7 | 0.00 | 0.00 | 0.00 | 82 | 1015.2 |
| 20260903145939 | 17 | 247 | 3.2 | 9.7 | 0.00 | 0.00 | 0.00 | 83 | 1015.1 |
| 20260903145427 | 17 | 116 | 1.6 | 9.7 | 0.00 | 0.00 | 0.00 | 84 | 1015.2 |
| 20260903144934 | 17 | 62 | 3.2 | 9.7 | 0.00 | 0.00 | 0.00 | 84 | 1015.1 |
| 20260903144419 | 17 | 45 | 3.2 | 6.4 | 0.00 | 0.00 | 0.00 | 84 | 1015.1 |
| 20260903143925 | 16 | 232 | 3.2 | 6.4 | 0.00 | 0.00 | 0.00 | 85 | 1015.1 |
| 20260903143428 | 16 | 142 | 3.2 | 8.0 | 0.00 | 0.00 | 0.00 | 85 | 1015.1 |
| 20260903142930 | 16 | 222 | 1.6 | 8.0 | 0.00 | 0.00 | 0.00 | 85 | 1015.1 |
| 20260903142418 | 16 | 134 | 3.2 | 8.0 | 0.00 | 0.00 | 0.00 | 85 | 1015.0 |
| 20260903141925 | 16 | 160 | 1.6 | 8.0 | 0.00 | 0.00 | 0.00 | 85 | 1014.9 |
| 20260903141434 | 16 | 242 | 3.2 | 6.4 | 0.00 | 0.00 | 0.00 | 86 | 1014.8 |
| 20260903140919 | 16 | 55 | 3.2 | 8.0 | 0.00 | 0.00 | 0.00 | 85 | 1014.9 |
| 20260903140424 | 16 | 222 | 1.6 | 8.0 | 0.00 | 0.00 | 0.00 | 85 | 1014.8 |
| 20260903135927 | 16 | 137 | 1.6 | 4.8 | 0.00 | 0.00 | 0.00 | 85 | 1014.9 |
| 20260903135431 | 16 | 12 | 1.6 | 11.3 | 0.00 | 0.00 | 0.00 | 85 | 1015.0 |
| 20260903134918 | 16 | 216 | 4.8 | 11.3 | 0.00 | 0.00 | 0.00 | 85 | 1015.0 |
| 20260903134424 | 16 | 246 | 4.8 | 12.9 | 0.00 | 0.00 | 0.00 | 85 | 1014.9 |
| 20260903133932 | 16 | 295 | 6.4 | 12.9 | 0.00 | 0.00 | 0.00 | 86 | 1014.8 |
| 20260903133417 | 16 | 232 | 6.4 | 11.3 | 0.00 | 0.00 | 0.00 | 86 | 1014.9 |
| 20260903132921 | 16 | 177 | 3.2 | 9.7 | 0.00 | 0.00 | 0.00 | 86 | 1014.8 |
| 20260903132426 | 16 | 200 | 4.8 | 14.5 | 0.00 | 0.00 | 0.00 | 86 | 1014.8 |
| 20260903131931 | 16 | 232 | 8.0 | 14.5 | 0.00 | 0.00 | 0.00 | 86 | 1014.7 |
| 20260903131439 | 16 | 205 | 6.4 | 14.5 | 0.00 | 0.00 | 0.00 | 86 | 1014.8 |
| 20260903130925 | 16 | 211 | 4.8 | 12.9 | 0.00 | 0.00 | 0.00 | 86 | 1014.8 |
| 20260903130433 | 16 | 249 | 4.8 | 9.7 | 0.00 | 0.00 | 0.00 | 86 | 1014.8 |
| 20260903125917 | 16 | 207 | 1.6 | 4.8 | 0.00 | 0.00 | 0.00 | 86 | 1014.9 |
| 20260903125424 | 16 | 67 | 1.6 | 4.8 | 0.00 | 0.00 | 0.00 | 86 | 1014.8 |
| 20260903124930 | 16 | 55 | 1.6 | 4.8 | 0.00 | 0.00 | 0.00 | 86 | 1014.7 |
| 20260903124435 | 16 | 209 | 1.6 | 4.8 | 0.00 | 0.00 | 0.00 | 85 | 1014.8 |
| 20260903123952 | 16 | 209 | 3.2 | 6.4 | 0.00 | 0.00 | 0.00 | 85 | 1014.8 |
| 20260903123417 | 16 | 189 | 3.2 | 9.7 | 0.00 | 0.00 | 0.00 | 85 | 1014.9 |
| 20260903122924 | 16 | 214 | 4.8 | 9.7 | 0.00 | 0.00 | 0.00 | 85 | 1014.8 |
| 20260903122431 | 16 | 215 | 1.6 | 6.4 | 0.00 | 0.00 | 0.00 | 85 | 1014.8 |
| 20260903121919 | 16 | 88 | 1.6 | 11.3 | 0.00 | 0.00 | 0.00 | 85 | 1014.9 |
| 20260903121446 | 16 | 212 | 3.2 | 11.3 | 0.00 | 0.00 | 0.00 | 85 | 1015.0 |
| 20260903120930 | 16 | 222 | 4.8 | 9.7 | 0.00 | 0.00 | 0.00 | 85 | 1015.1 |
| 20260903120435 | 16 | 205 | 4.8 | 9.7 | 0.00 | 0.00 | 0.00 | 85 | 1015.2 |
| 20260903115939 | 16 | 226 | 3.2 | 14.5 | 0.00 | 0.00 | 0.00 | 85 | 1015.2 |
| 20260903115455 | 16 | 223 | 6.4 | 14.5 | 0.00 | 0.00 | 0.00 | 85 | 1015.2 |
| 20260903114940 | 16 | 206 | 4.8 | 9.7 | 0.00 | 0.00 | 0.00 | 85 | 1015.2 |
| 20260903114425 | 16 | 196 | 4.8 | 9.7 | 0.00 | 0.00 | 0.00 | 85 | 1015.3 |
| 20260903113927 | 16 | 202 | 4.8 | 9.7 | 0.00 | 0.00 | 0.00 | 85 | 1015.3 |
| 20260903113432 | 16 | 222 | 6.4 | 9.7 | 0.00 | 0.00 | 0.00 | 85 | 1015.4 |
| 20260903112919 | 16 | 210 | 3.2 | 11.3 | 0.00 | 0.00 | 0.00 | 85 | 1015.4 |
| 20260903112427 | 16 | 205 | 4.8 | 9.7 | 0.00 | 0.00 | 0.00 | 85 | 1015.4 |
| 20260903111933 | 16 | 214 | 3.2 | 9.7 | 0.00 | 0.00 | 0.00 | 85 | 1015.5 |
| 20260903111421 | 16 | 151 | 4.8 | 11.3 | 0.00 | 0.00 | 0.00 | 85 | 1015.6 |
| 20260903110926 | 16 | 268 | 6.4 | 11.3 | 0.00 | 0.00 | 0.00 | 85 | 1015.6 |
| 20260903110432 | 16 | 200 | 4.8 | 14.5 | 0.00 | 0.00 | 0.00 | 85 | 1015.6 |
| 20260903105934 | 16 | 219 | 9.7 | 16.1 | 0.00 | 0.00 | 0.00 | 85 | 1015.7 |
| 20260903105420 | 16 | 226 | 8.0 | 14.5 | 0.00 | 0.00 | 0.00 | 85 | 1015.7 |
| 20260903104930 | 16 | 232 | 8.0 | 12.9 | 0.00 | 0.00 | 0.00 | 85 | 1015.8 |
| 20260903104417 | 16 | 215 | 9.7 | 14.5 | 0.00 | 0.00 | 0.00 | 85 | 1015.7 |
| 20260903103924 | 16 | 164 | 8.0 | 14.5 | 0.00 | 0.00 | 0.00 | 85 | 1015.7 |
| 20260903103429 | 16 | 177 | 8.0 | 14.5 | 0.00 | 0.00 | 0.00 | 85 | 1015.6 |
| 20260903102934 | 16 | 214 | 3.2 | 11.3 | 0.00 | 0.00 | 0.00 | 85 | 1015.7 |
| 20260903102420 | 16 | 216 | 3.2 | 11.3 | 0.00 | 0.00 | 0.00 | 85 | 1015.7 |
| 20260903101924 | 16 | 219 | 3.2 | 11.3 | 0.00 | 0.00 | 0.00 | 85 | 1015.8 |
| 20260903101431 | 16 | 202 | 8.0 | 11.3 | 0.00 | 0.00 | 0.00 | 85 | 1015.9 |
| 20260903100919 | 16 | 206 | 4.8 | 11.3 | 0.00 | 0.00 | 0.00 | 85 | 1015.8 |
| 20260903100453 | 16 | 189 | 6.4 | 11.3 | 0.00 | 0.00 | 0.00 | 85 | 1015.9 |
| 20260903095919 | 16 | 339 | 3.2 | 9.7 | 0.00 | 0.00 | 0.00 | 85 | 1015.8 |
| 20260903095425 | 16 | 212 | 6.4 | 11.3 | 0.00 | 0.00 | 0.00 | 85 | 1015.9 |
| 20260903094933 | 16 | 200 | 6.4 | 11.3 | 0.00 | 0.00 | 0.00 | 85 | 1016.0 |
| 20260903094436 | 16 | 196 | 6.4 | 11.3 | 0.00 | 0.00 | 0.00 | 85 | 1016.0 |
| 20260903093952 | 16 | 239 | 4.8 | 9.7 | 0.00 | 0.00 | 0.00 | 85 | 1016.0 |
| 20260903093417 | 16 | 177 | 4.8 | 8.0 | 0.00 | 0.00 | 0.00 | 85 | 1016.1 |
| 20260903092921 | 16 | 268 | 3.2 | 4.8 | 0.00 | 0.00 | 0.00 | 85 | 1016.1 |
| 20260903092424 | 16 | 205 | 3.2 | 4.8 | 0.00 | 0.00 | 0.00 | 85 | 1016.1 |
| 20260903091930 | 16 | 268 | 1.6 | 6.4 | 0.00 | 0.00 | 0.00 | 85 | 1016.2 |
| 20260903091436 | 16 | 192 | 1.6 | 9.7 | 0.00 | 0.00 | 0.00 | 85 | 1016.2 |
| 20260903090920 | 16 | 235 | 6.4 | 9.7 | 0.00 | 0.00 | 0.00 | 85 | 1016.3 |
| 20260903090457 | 16 | 268 | 3.2 | 9.7 | 0.00 | 0.00 | 0.00 | 85 | 1016.3 |
| 20260903085919 | 16 | 218 | 6.4 | 9.7 | 0.00 | 0.00 | 0.00 | 85 | 1016.3 |
| 20260903085428 | 16 | 217 | 4.8 | 11.3 | 0.00 | 0.00 | 0.00 | 85 | 1016.3 |
| 20260903084935 | 16 | 198 | 6.4 | 11.3 | 0.00 | 0.00 | 0.00 | 85 | 1016.3 |
| 20260903084421 | 16 | 222 | 3.2 | 11.3 | 0.00 | 0.00 | 0.00 | 85 | 1016.3 |
| 20260903083926 | 16 | 251 | 4.8 | 14.5 | 0.00 | 0.00 | 0.00 | 85 | 1016.3 |
| 20260903083457 | 16 | 203 | 4.8 | 14.5 | 0.00 | 0.00 | 0.00 | 85 | 1016.2 |
| 20260903082923 | 16 | 247 | 8.0 | 12.9 | 0.00 | 0.00 | 0.00 | 85 | 1016.3 |
| 20260903082431 | 16 | 231 | 4.8 | 8.0 | 0.00 | 0.00 | 0.00 | 85 | 1016.3 |
| 20260903081917 | 16 | 203 | 3.2 | 9.7 | 0.00 | 0.00 | 0.00 | 85 | 1016.4 |
| 20260903081421 | 16 | 226 | 4.8 | 9.7 | 0.00 | 0.00 | 0.00 | 85 | 1016.4 |
| 20260903080929 | 16 | 36 | 4.8 | 9.7 | 0.00 | 0.00 | 0.00 | 85 | 1016.3 |
| 20260903080418 | 16 | 268 | 4.8 | 9.7 | 0.00 | 0.00 | 0.00 | 85 | 1016.4 |
| 20260903075924 | 16 | 268 | 1.6 | 9.7 | 0.00 | 0.00 | 0.00 | 85 | 1016.4 |
| 20260903075428 | 16 | 268 | 3.2 | 9.7 | 0.00 | 0.00 | 0.00 | 85 | 1016.4 |
| 20260903074934 | 16 | 289 | 4.8 | 8.0 | 0.00 | 0.00 | 0.00 | 85 | 1016.4 |
| 20260903074421 | 16 | 278 | 1.6 | 8.0 | 0.00 | 0.00 | 0.00 | 85 | 1016.3 |
| 20260903073926 | 16 | 273 | 3.2 | 9.7 | 0.00 | 0.00 | 0.00 | 85 | 1016.2 |
| 20260903073434 | 16 | 233 | 3.2 | 9.7 | 0.00 | 0.00 | 0.00 | 85 | 1016.2 |
| 20260903072918 | 16 | 252 | 4.8 | 8.0 | 0.00 | 0.00 | 0.00 | 85 | 1016.3 |
| 20260903072427 | 16 | 134 | 3.2 | 11.3 | 0.00 | 0.00 | 0.00 | 85 | 1016.4 |
| 20260903071931 | 16 | 294 | 3.2 | 11.3 | 0.00 | 0.00 | 0.00 | 85 | 1016.3 |
| 20260903071417 | 16 | 217 | 6.4 | 9.7 | 0.00 | 0.00 | 0.00 | 85 | 1016.2 |
| 20260903070924 | 16 | 196 | 3.2 | 8.0 | 0.00 | 0.00 | 0.00 | 85 | 1016.3 |
| 20260903070429 | 16 | 209 | 4.8 | 11.3 | 0.00 | 0.00 | 0.00 | 84 | 1016.2 |
| 20260903065928 | 16 | 211 | 6.4 | 16.1 | 0.00 | 0.00 | 0.00 | 84 | 1016.2 |
| 20260903065434 | 16 | 230 | 8.0 | 16.1 | 0.00 | 0.00 | 0.00 | 84 | 1016.2 |
| 20260903064922 | 16 | 271 | 8.0 | 14.5 | 0.00 | 0.00 | 0.00 | 84 | 1016.2 |
| 20260903064425 | 16 | 239 | 4.8 | 11.3 | 0.00 | 0.00 | 0.00 | 84 | 1016.2 |
| 20260903063931 | 16 | 249 | 6.4 | 11.3 | 0.00 | 0.00 | 0.00 | 84 | 1016.3 |
| 20260903063437 | 16 | 263 | 6.4 | 14.5 | 0.00 | 0.00 | 0.00 | 84 | 1016.3 |
| 20260903062921 | 16 | 235 | 6.4 | 16.1 | 0.00 | 0.00 | 0.00 | 84 | 1016.4 |
| 20260903062456 | 16 | 230 | 9.7 | 16.1 | 0.00 | 0.00 | 0.00 | 84 | 1016.3 |
| 20260903061922 | 16 | 249 | 9.7 | 17.7 | 0.00 | 0.00 | 0.00 | 84 | 1016.4 |
| 20260903061431 | 16 | 258 | 11.3 | 17.7 | 0.00 | 0.00 | 0.00 | 84 | 1016.4 |
| 20260903060919 | 16 | 256 | 8.0 | 22.5 | 0.00 | 0.00 | 0.00 | 84 | 1016.4 |
| 20260903060423 | 16 | 221 | 6.4 | 22.5 | 0.00 | 0.00 | 0.00 | 84 | 1016.5 |
| 20260903055929 | 16 | 197 | 11.3 | 22.5 | 0.00 | 0.00 | 0.00 | 84 | 1016.5 |
| 20260903055434 | 16 | 273 | 8.0 | 22.5 | 0.00 | 0.00 | 0.00 | 84 | 1016.4 |
| 20260903054943 | 16 | 303 | 9.7 | 24.1 | 0.00 | 0.00 | 0.00 | 84 | 1016.5 |
| 20260903054429 | 16 | 268 | 11.3 | 25.7 | 0.00 | 0.00 | 0.00 | 84 | 1016.5 |
| 20260903053936 | 16 | 247 | 8.0 | 25.7 | 0.00 | 0.00 | 0.00 | 84 | 1016.6 |
| 20260903053422 | 16 | 273 | 8.0 | 20.9 | 0.00 | 0.00 | 0.00 | 84 | 1016.7 |
| 20260903052944 | 16 | 254 | 8.0 | 24.1 | 0.00 | 0.00 | 0.00 | 83 | 1016.6 |
| 20260903052432 | 16 | 264 | 8.0 | 24.1 | 0.00 | 0.00 | 0.00 | 83 | 1016.6 |
| 20260903051918 | 16 | 263 | 12.9 | 19.3 | 0.00 | 0.00 | 0.00 | 83 | 1016.6 |
| 20260903051423 | 16 | 270 | 8.0 | 19.3 | 0.00 | 0.00 | 0.00 | 83 | 1016.7 |
| 20260903050930 | 16 | 244 | 8.0 | 20.9 | 0.00 | 0.00 | 0.00 | 83 | 1016.7 |
| 20260903050418 | 16 | 263 | 9.7 | 20.9 | 0.00 | 0.00 | 0.00 | 83 | 1016.7 |
| 20260903045923 | 16 | 217 | 9.7 | 19.3 | 0.00 | 0.00 | 0.00 | 83 | 1016.8 |
| 20260903045428 | 16 | 194 | 4.8 | 14.5 | 0.00 | 0.00 | 0.00 | 83 | 1016.8 |
| 20260903044935 | 16 | 134 | 4.8 | 12.9 | 0.00 | 0.00 | 0.00 | 83 | 1016.7 |
| 20260903044422 | 16 | 232 | 4.8 | 12.9 | 0.00 | 0.00 | 0.00 | 83 | 1016.6 |
| 20260903043929 | 16 | 252 | 4.8 | 19.3 | 0.00 | 0.00 | 0.00 | 83 | 1016.7 |
| 20260903043435 | 16 | 205 | 9.7 | 24.1 | 0.00 | 0.00 | 0.00 | 83 | 1016.6 |
| 20260903042952 | 16 | 216 | 11.3 | 24.1 | 0.00 | 0.00 | 0.00 | 83 | 1016.5 |
| 20260903042420 | 16 | 252 | 9.7 | 25.7 | 0.00 | 0.00 | 0.00 | 83 | 1016.4 |
| 20260903041923 | 16 | 259 | 9.7 | 29.0 | 0.00 | 0.00 | 0.00 | 83 | 1016.4 |
| 20260903041457 | 16 | 237 | 14.5 | 30.6 | 0.00 | 0.00 | 0.00 | 83 | 1016.3 |
| 20260903040923 | 16 | 268 | 16.1 | 30.6 | 0.00 | 0.00 | 0.00 | 83 | 1016.4 |
| 20260903040429 | 16 | 299 | 14.5 | 30.6 | 0.00 | 0.00 | 0.00 | 83 | 1016.3 |
| 20260903035934 | 16 | 287 | 17.7 | 33.8 | 0.00 | 0.00 | 0.00 | 83 | 1016.3 |
| 20260903035440 | 17 | 268 | 19.3 | 38.6 | 0.00 | 0.00 | 0.00 | 83 | 1016.2 |
| 20260903034925 | 17 | 289 | 20.9 | 38.6 | 0.00 | 0.00 | 0.00 | 83 | 1016.1 |
| 20260903034431 | 17 | 284 | 24.1 | 37.0 | 0.00 | 0.00 | 0.00 | 83 | 1016.1 |
| 20260903033918 | 17 | 264 | 25.7 | 41.8 | 0.00 | 0.00 | 0.00 | 83 | 1016.1 |
| 20260903033428 | 17 | 222 | 22.5 | 41.8 | 0.00 | 0.00 | 0.00 | 83 | 1016.0 |
| 20260903032932 | 17 | 249 | 20.9 | 35.4 | 0.00 | 0.00 | 0.00 | 83 | 1015.9 |
| 20260903032420 | 17 | 359 | 24.1 | 41.8 | 0.00 | 0.00 | 0.00 | 83 | 1015.8 |
| 20260903031927 | 17 | 270 | 24.1 | 41.8 | 0.00 | 0.00 | 0.00 | 83 | 1015.7 |
| 20260903031432 | 17 | 261 | 24.1 | 33.8 | 0.00 | 0.00 | 0.00 | 83 | 1015.7 |
| 20260903030919 | 17 | 270 | 20.9 | 35.4 | 0.00 | 0.00 | 0.00 | 83 | 1015.8 |
| 20260903030423 | 17 | 237 | 22.5 | 35.4 | 0.00 | 0.00 | 0.00 | 83 | 1015.7 |
| 20260903025929 | 17 | 287 | 20.9 | 37.0 | 0.00 | 0.00 | 0.00 | 83 | 1015.6 |
| 20260903025434 | 17 | 273 | 20.9 | 37.0 | 0.00 | 0.00 | 0.00 | 83 | 1015.6 |
| 20260903024918 | 17 | 242 | 17.7 | 32.2 | 0.00 | 0.00 | 0.00 | 83 | 1015.6 |
| 20260903024425 | 17 | 265 | 16.1 | 33.8 | 0.00 | 0.00 | 0.00 | 82 | 1015.7 |
| 20260903023930 | 17 | 282 | 19.3 | 33.8 | 0.00 | 0.00 | 0.00 | 82 | 1015.7 |
| 20260903023437 | 17 | 270 | 16.1 | 30.6 | 0.00 | 0.00 | 0.00 | 81 | 1015.8 |
| 20260903022939 | 17 | 257 | 17.7 | 35.4 | 0.00 | 0.00 | 0.00 | 81 | 1015.8 |
| 20260903022423 | 17 | 280 | 17.7 | 29.0 | 0.00 | 0.00 | 0.00 | 81 | 1016.0 |
| 20260903021929 | 17 | 276 | 16.1 | 35.4 | 0.00 | 0.00 | 0.00 | 80 | 1015.9 |
| 20260903021435 | 17 | 271 | 19.3 | 33.8 | 0.00 | 0.00 | 0.00 | 80 | 1016.0 |
| 20260903020920 | 17 | 277 | 20.9 | 33.8 | 0.00 | 0.00 | 0.00 | 80 | 1016.0 |
| 20260903020425 | 17 | 282 | 14.5 | 37.0 | 0.00 | 0.00 | 0.00 | 80 | 1016.1 |
| 20260903015929 | 17 | 254 | 16.1 | 37.0 | 0.00 | 0.00 | 0.00 | 79 | 1016.1 |
| 20260903015433 | 17 | 292 | 14.5 | 25.7 | 0.00 | 0.00 | 0.00 | 79 | 1016.2 |
| 20260903014921 | 17 | 249 | 16.1 | 29.0 | 0.00 | 0.00 | 0.00 | 79 | 1016.2 |
| 20260903014429 | 17 | 285 | 16.1 | 30.6 | 0.00 | 0.00 | 0.00 | 78 | 1016.2 |
| 20260903013917 | 17 | 257 | 19.3 | 30.6 | 0.00 | 0.00 | 0.00 | 77 | 1016.2 |
| 20260903013423 | 18 | 254 | 14.5 | 40.2 | 0.00 | 0.00 | 0.00 | 77 | 1016.4 |
| 20260903012931 | 18 | 222 | 16.1 | 40.2 | 0.00 | 0.00 | 0.00 | 76 | 1016.2 |
| 20260903012419 | 18 | 291 | 20.9 | 35.4 | 0.00 | 0.00 | 0.00 | 76 | 1016.3 |
| 20260903011927 | 18 | 228 | 19.3 | 37.0 | 0.00 | 0.00 | 0.00 | 75 | 1016.2 |
| 20260903011430 | 18 | 256 | 17.7 | 35.4 | 0.00 | 0.00 | 0.00 | 75 | 1016.3 |
| 20260903010936 | 18 | 233 | 20.9 | 30.6 | 0.00 | 0.00 | 0.00 | 75 | 1016.3 |
| 20260903010445 | 18 | 276 | 17.7 | 33.8 | 0.00 | 0.00 | 0.00 | 75 | 1016.3 |
| 20260903005939 | 18 | 282 | 19.3 | 33.8 | 0.00 | 0.00 | 0.00 | 74 | 1016.3 |
| 20260903005451 | 18 | 257 | 20.9 | 29.0 | 0.00 | 0.00 | 0.00 | 74 | 1016.3 |
| 20260903004936 | 18 | 268 | 14.5 | 33.8 | 0.00 | 0.00 | 0.00 | 74 | 1016.3 |
| 20260903004421 | 18 | 280 | 24.1 | 33.8 | 0.00 | 0.00 | 0.00 | 74 | 1016.3 |
| 20260903003927 | 18 | 281 | 19.3 | 38.6 | 0.00 | 0.00 | 0.00 | 73 | 1016.3 |
| 20260903003433 | 18 | 316 | 19.3 | 38.6 | 0.00 | 0.00 | 0.00 | 73 | 1016.4 |
| 20260903002918 | 18 | 278 | 20.9 | 37.0 | 0.00 | 0.00 | 0.00 | 74 | 1016.4 |
| 20260903002426 | 18 | 288 | 24.1 | 35.4 | 0.00 | 0.00 | 0.00 | 73 | 1016.5 |
| 20260903001929 | 18 | 249 | 20.9 | 37.0 | 0.00 | 0.00 | 0.00 | 73 | 1016.6 |
| 20260903001435 | 18 | 264 | 14.5 | 37.0 | 0.00 | 0.00 | 0.00 | 73 | 1016.6 |
| 20260903000922 | 18 | 263 | 20.9 | 35.4 | 0.00 | 0.00 | 0.00 | 73 | 1016.5 |
| 20260903000432 | 18 | 273 | 24.1 | 35.4 | 0.00 | 0.00 | 0.00 | 73 | 1016.6 |
| 20260902235936 | 19 | 280 | 17.7 | 33.8 | 0.00 | 0.00 | 0.00 | 73 | 1016.7 |
| 20260902235453 | 19 | 310 | 17.7 | 35.4 | 0.00 | 0.00 | 0.00 | 73 | 1016.7 |
| 20260902234939 | 19 | 225 | 19.3 | 35.4 | 0.00 | 0.00 | 0.00 | 72 | 1016.8 |
| 20260902234442 | 19 | 270 | 12.9 | 30.6 | 0.00 | 0.00 | 0.00 | 72 | 1016.8 |
| 20260902233926 | 19 | 275 | 16.1 | 29.0 | 0.00 | 0.00 | 0.00 | 72 | 1016.8 |
| 20260902233434 | 20 | 268 | 16.1 | 30.6 | 0.00 | 0.00 | 0.00 | 71 | 1016.7 |
| 20260902232948 | 19 | 258 | 16.1 | 30.6 | 0.00 | 0.00 | 0.00 | 71 | 1016.7 |
| 20260902232434 | 19 | 248 | 17.7 | 29.0 | 0.00 | 0.00 | 0.00 | 71 | 1016.7 |
| 20260902231941 | 19 | 310 | 16.1 | 30.6 | 0.00 | 0.00 | 0.00 | 72 | 1016.8 |
| 20260902231445 | 19 | 239 | 16.1 | 37.0 | 0.00 | 0.00 | 0.00 | 72 | 1016.9 |
| 20260902230932 | 20 | 268 | 20.9 | 37.0 | 0.00 | 0.00 | 0.00 | 71 | 1016.9 |
| 20260902230436 | 20 | 275 | 14.5 | 35.4 | 0.00 | 0.00 | 0.00 | 72 | 1016.9 |
| 20260902225928 | 19 | 280 | 19.3 | 35.4 | 0.00 | 0.00 | 0.00 | 72 | 1017.0 |
| 20260902225434 | 20 | 280 | 12.9 | 30.6 | 0.00 | 0.00 | 0.00 | 72 | 1017.1 |
| 20260902224938 | 20 | 289 | 12.9 | 30.6 | 0.00 | 0.00 | 0.00 | 72 | 1017.1 |
| 20260902224451 | 20 | 258 | 14.5 | 27.4 | 0.00 | 0.00 | 0.00 | 71 | 1017.2 |
| 20260902223939 | 20 | 273 | 17.7 | 27.4 | 0.00 | 0.00 | 0.00 | 71 | 1017.3 |
| 20260902223423 | 20 | 259 | 11.3 | 25.7 | 0.00 | 0.00 | 0.00 | 71 | 1017.2 |
| 20260902222955 | 20 | 258 | 11.3 | 25.7 | 0.00 | 0.00 | 0.00 | 71 | 1017.2 |
| 20260902222422 | 20 | 233 | 8.0 | 25.7 | 0.00 | 0.00 | 0.00 | 71 | 1017.3 |
| 20260902221927 | 20 | 256 | 12.9 | 25.7 | 0.00 | 0.00 | 0.00 | 71 | 1017.3 |
| 20260902221417 | 20 | 282 | 9.7 | 22.5 | 0.00 | 0.00 | 0.00 | 72 | 1017.2 |
| 20260902220918 | 20 | 249 | 9.7 | 25.7 | 0.00 | 0.00 | 0.00 | 72 | 1017.3 |
| 20260902220453 | 20 | 303 | 16.1 | 29.0 | 0.00 | 0.00 | 0.00 | 72 | 1017.3 |
| 20260902215925 | 20 | 256 | 11.3 | 32.2 | 0.00 | 0.00 | 0.00 | 72 | 1017.3 |
| 20260902215428 | 20 | 270 | 16.1 | 32.2 | 0.00 | 0.00 | 0.00 | 72 | 1017.3 |
| 20260902214934 | 20 | 301 | 17.7 | 29.0 | 0.00 | 0.00 | 0.00 | 71 | 1017.4 |
| 20260902214423 | 20 | 226 | 17.7 | 29.0 | 0.00 | 0.00 | 0.00 | 72 | 1017.3 |
| 20260902213958 | 20 | 302 | 11.3 | 25.7 | 0.00 | 0.00 | 0.00 | 71 | 1017.4 |
| 20260902213418 | 20 | 254 | 12.9 | 33.8 | 0.00 | 0.00 | 0.00 | 72 | 1017.5 |
| 20260902212922 | 20 | 251 | 16.1 | 33.8 | 0.00 | 0.00 | 0.00 | 72 | 1017.5 |
| 20260902212427 | 20 | 232 | 14.5 | 29.0 | 0.00 | 0.00 | 0.00 | 73 | 1017.5 |
| 20260902211934 | 20 | 271 | 19.3 | 29.0 | 0.00 | 0.00 | 0.00 | 71 | 1017.4 |
| 20260902211439 | 20 | 296 | 8.0 | 27.4 | 0.00 | 0.00 | 0.00 | 73 | 1017.5 |
| 20260902210928 | 20 | 289 | 11.3 | 32.2 | 0.00 | 0.00 | 0.00 | 73 | 1017.5 |
| 20260902210436 | 20 | 268 | 16.1 | 32.2 | 0.00 | 0.00 | 0.00 | 73 | 1017.6 |
| 20260902205944 | 20 | 256 | 14.5 | 25.7 | 0.00 | 0.00 | 0.00 | 73 | 1017.5 |
| 20260902205432 | 20 | 284 | 11.3 | 25.7 | 0.00 | 0.00 | 0.00 | 73 | 1017.5 |
| 20260902204920 | 20 | 220 | 11.3 | 20.9 | 0.00 | 0.00 | 0.00 | 73 | 1017.6 |
| 20260902204445 | 20 | 242 | 8.0 | 22.5 | 0.00 | 0.00 | 0.00 | 74 | 1017.5 |
| 20260902203928 | 20 | 261 | 8.0 | 22.5 | 0.00 | 0.00 | 0.00 | 74 | 1017.6 |
| 20260902203435 | 19 | 245 | 11.3 | 24.1 | 0.00 | 0.00 | 0.00 | 75 | 1017.6 |
| 20260902202922 | 19 | 327 | 12.9 | 25.7 | 0.00 | 0.00 | 0.00 | 75 | 1017.6 |
| 20260902202424 | 19 | 212 | 8.0 | 25.7 | 0.00 | 0.00 | 0.00 | 75 | 1017.7 |
| 20260902201928 | 20 | 239 | 12.9 | 24.1 | 0.00 | 0.00 | 0.00 | 75 | 1017.8 |
| 20260902201436 | 20 | 209 | 11.3 | 24.1 | 0.00 | 0.00 | 0.00 | 75 | 1017.9 |
| 20260902200923 | 20 | 230 | 11.3 | 25.7 | 0.00 | 0.00 | 0.00 | 75 | 1017.9 |
| 20260902200428 | 19 | 229 | 14.5 | 25.7 | 0.00 | 0.00 | 0.00 | 75 | 1017.9 |
| 20260902195932 | 19 | 289 | 11.3 | 19.3 | 0.00 | 0.00 | 0.00 | 76 | 1018.0 |
| 20260902195421 | 19 | 286 | 8.0 | 17.7 | 0.00 | 0.00 | 0.00 | 76 | 1018.1 |
| 20260902194943 | 19 | 264 | 9.7 | 19.3 | 0.00 | 0.00 | 0.00 | 76 | 1018.2 |
| 20260902194428 | 19 | 340 | 8.0 | 25.7 | 0.00 | 0.00 | 0.00 | 76 | 1018.2 |
| 20260902193935 | 19 | 251 | 8.0 | 17.7 | 0.00 | 0.00 | 0.00 | 77 | 1018.3 |
| 20260902193450 | 19 | 195 | 9.7 | 22.5 | 0.00 | 0.00 | 0.00 | 78 | 1018.2 |
| 20260902192934 | 18 | 216 | 11.3 | 24.1 | 0.00 | 0.00 | 0.00 | 79 | 1018.2 |
| 20260902192421 | 18 | 221 | 12.9 | 22.5 | 0.00 | 0.00 | 0.00 | 79 | 1018.3 |
| 20260902191928 | 18 | 209 | 9.7 | 20.9 | 0.00 | 0.00 | 0.00 | 81 | 1018.3 |
| 20260902191432 | 18 | 230 | 9.7 | 27.4 | 0.00 | 0.00 | 0.00 | 81 | 1018.3 |
| 20260902190950 | 18 | 302 | 12.9 | 27.4 | 0.00 | 0.00 | 0.00 | 82 | 1018.5 |
| 20260902190435 | 18 | 242 | 8.0 | 24.1 | 0.00 | 0.00 | 0.00 | 82 | 1018.4 |
| 20260902185933 | 17 | 313 | 11.3 | 25.7 | 0.00 | 0.00 | 0.00 | 81 | 1018.3 |
| 20260902185419 | 18 | 177 | 14.5 | 25.7 | 0.00 | 0.00 | 0.00 | 80 | 1018.4 |
| 20260902184926 | 18 | 217 | 16.1 | 25.7 | 0.00 | 0.00 | 0.00 | 78 | 1018.2 |
| 20260902184431 | 19 | 277 | 12.9 | 29.0 | 0.00 | 0.00 | 0.00 | 77 | 1018.3 |
| 20260902183934 | 19 | 300 | 9.7 | 29.0 | 0.00 | 0.00 | 0.00 | 77 | 1018.1 |
| 20260902183418 | 19 | 282 | 9.7 | 24.1 | 0.00 | 0.00 | 0.00 | 77 | 1018.2 |
| 20260902182920 | 18 | 217 | 12.9 | 24.1 | 0.00 | 0.00 | 0.00 | 77 | 1018.2 |
| 20260902182425 | 18 | 214 | 6.4 | 19.3 | 0.00 | 0.00 | 0.00 | 78 | 1018.3 |
| 20260902181932 | 18 | 283 | 9.7 | 19.3 | 0.00 | 0.00 | 0.00 | 78 | 1018.2 |
| 20260902181418 | 18 | 237 | 9.7 | 20.9 | 0.00 | 0.00 | 0.00 | 77 | 1018.2 |
| 20260902180923 | 18 | 333 | 12.9 | 22.5 | 0.00 | 0.00 | 0.00 | 77 | 1018.2 |
| 20260902180426 | 18 | 275 | 9.7 | 24.1 | 0.00 | 0.00 | 0.00 | 77 | 1018.1 |
| 20260902175930 | 18 | 273 | 14.5 | 24.1 | 0.00 | 0.00 | 0.00 | 77 | 1018.0 |
| 20260902175437 | 18 | 197 | 12.9 | 24.1 | 0.00 | 0.00 | 0.00 | 77 | 1018.1 |
| 20260902174949 | 18 | 247 | 12.9 | 27.4 | 0.00 | 0.00 | 0.00 | 77 | 1017.9 |
| 20260902174435 | 18 | 237 | 12.9 | 27.4 | 0.00 | 0.00 | 0.00 | 77 | 1017.9 |
| 20260902173922 | 18 | 268 | 9.7 | 19.3 | 0.00 | 0.00 | 0.00 | 77 | 1017.9 |
| 20260902173429 | 19 | 234 | 11.3 | 17.7 | 0.00 | 0.00 | 0.00 | 77 | 1017.7 |
| 20260902172926 | 19 | 234 | 8.0 | 20.9 | 0.00 | 0.00 | 0.00 | 78 | 1017.6 |
| 20260902172434 | 18 | 212 | 8.0 | 20.9 | 0.00 | 0.00 | 0.00 | 78 | 1017.5 |
| 20260902171950 | 18 | 249 | 9.7 | 20.9 | 0.00 | 0.00 | 0.00 | 78 | 1017.5 |
| 20260902171435 | 18 | 221 | 9.7 | 20.9 | 0.00 | 0.00 | 0.00 | 79 | 1017.4 |
| 20260902170921 | 18 | 235 | 6.4 | 17.7 | 0.00 | 0.00 | 0.00 | 79 | 1017.5 |
| 20260902170428 | 18 | 242 | 6.4 | 24.1 | 0.00 | 0.00 | 0.00 | 78 | 1017.5 |
| 20260902165933 | 18 | 226 | 8.0 | 24.1 | 0.00 | 0.00 | 0.00 | 78 | 1017.4 |
| 20260902165420 | 18 | 211 | 4.8 | 20.9 | 0.00 | 0.00 | 0.00 | 78 | 1017.4 |
| 20260902164920 | 18 | 238 | 8.0 | 19.3 | 0.00 | 0.00 | 0.00 | 78 | 1017.4 |
| 20260902164426 | 18 | 247 | 6.4 | 16.1 | 0.00 | 0.00 | 0.00 | 78 | 1017.3 |
| 20260902163934 | 18 | 213 | 9.7 | 16.1 | 0.00 | 0.00 | 0.00 | 77 | 1017.3 |
| 20260902163419 | 18 | 227 | 8.0 | 16.1 | 0.00 | 0.00 | 0.00 | 77 | 1017.2 |
| 20260902162927 | 18 | 234 | 3.2 | 14.5 | 0.00 | 0.00 | 0.00 | 77 | 1017.3 |
| 20260902162432 | 18 | 208 | 4.8 | 12.9 | 0.00 | 0.00 | 0.00 | 77 | 1017.3 |
| 20260902161934 | 18 | 268 | 3.2 | 8.0 | 0.00 | 0.00 | 0.00 | 77 | 1017.3 |